Time,TemperatureF,DewpointF,PressureIn,WindDirection,WindDirectionDegrees,WindSpeedMPH,WindSpeedGustMPH,Humidity,HourlyPrecipIn,Conditions,Clouds,dailyrainin,SolarRadiationWatts/m^2,SoftwareType,DateUTC
2013-04-13 00:02:00,50.0,45.0,-100.00,NE,44,0.0,3.0,82,0.00,,,0.00,0.000000,,2013-04-13 05:02:00,
2013-04-13 00:32:00,50.0,45.0,-100.00,NE,44,0.0,3.0,82,0.00,,,0.00,0.000000,,2013-04-13 05:32:00,
2013-04-13 00:43:00,50.0,45.0,-100.00,NE,44,0.0,3.0,82,0.00,,,0.00,0.000000,,2013-04-13 05:43:00,
2013-04-13 00:52:00,50.0,45.0,-100.00,NE,44,0.0,3.0,82,0.00,,,0.00,0.000000,,2013-04-13 05:52:00,
2013-04-13 01:02:00,48.0,43.0,-100.00,East,91,0.0,1.0,83,0.00,,,0.00,0.000000,,2013-04-13 06:02:00,
2013-04-13 01:24:00,48.0,43.0,-100.00,East,91,0.0,1.0,83,0.00,,,0.00,0.000000,,2013-04-13 06:24:00,
2013-04-13 01:36:00,48.0,43.0,-100.00,East,91,0.0,1.0,83,0.00,,,0.00,0.000000,,2013-04-13 06:36:00,
2013-04-13 01:49:00,48.0,43.0,-100.00,East,91,0.0,1.0,83,0.00,,,0.00,0.000000,,2013-04-13 06:49:00,
2013-04-13 01:55:00,48.0,43.0,-100.00,East,91,0.0,1.0,83,0.00,,,0.00,0.000000,,2013-04-13 06:55:00,
2013-04-13 02:02:00,49.0,42.0,-100.00,East,84,0.0,3.0,78,0.00,,,0.00,0.000000,,2013-04-13 07:02:00,
2013-04-13 02:25:00,49.0,42.0,-100.00,East,84,0.0,3.0,78,0.00,,,0.00,0.000000,,2013-04-13 07:25:00,
2013-04-13 02:35:00,49.0,42.0,-100.00,East,84,0.0,3.0,78,0.00,,,0.00,0.000000,,2013-04-13 07:35:00,
2013-04-13 02:45:00,49.0,42.0,-100.00,East,84,0.0,3.0,78,0.00,,,0.00,0.000000,,2013-04-13 07:45:00,
2013-04-13 02:56:00,49.0,42.0,-100.00,East,84,0.0,3.0,78,0.00,,,0.00,0.000000,,2013-04-13 07:56:00,
2013-04-13 03:02:00,46.0,40.0,-100.00,SSE,147,0.0,2.0,79,0.00,,,0.00,0.000000,,2013-04-13 08:02:00,
2013-04-13 03:26:00,46.0,40.0,-100.00,SSE,147,0.0,2.0,79,0.00,,,0.00,0.000000,,2013-04-13 08:26:00,
2013-04-13 03:46:00,46.0,40.0,-100.00,SSE,147,0.0,2.0,79,0.00,,,0.00,0.000000,,2013-04-13 08:46:00,
2013-04-13 03:54:00,46.0,40.0,-100.00,SSE,147,0.0,2.0,79,0.00,,,0.00,0.000000,,2013-04-13 08:54:00,
2013-04-13 04:02:00,45.0,42.0,-100.00,North,9,1.0,4.0,88,0.00,,,0.00,0.000000,,2013-04-13 09:02:00,
2013-04-13 04:38:00,45.0,42.0,-100.00,North,9,1.0,4.0,88,0.00,,,0.00,0.000000,,2013-04-13 09:38:00,
2013-04-13 04:52:00,45.0,42.0,-100.00,North,9,1.0,4.0,88,0.00,,,0.00,0.000000,,2013-04-13 09:52:00,
2013-04-13 05:02:00,47.0,42.0,-100.00,ENE,75,2.0,3.0,84,0.00,,,0.00,0.000000,,2013-04-13 10:02:00,
2013-04-13 05:25:00,47.0,42.0,-100.00,ENE,75,2.0,3.0,84,0.00,,,0.00,0.000000,,2013-04-13 10:25:00,
2013-04-13 05:38:00,47.0,42.0,-100.00,ENE,75,2.0,3.0,84,0.00,,,0.00,0.000000,,2013-04-13 10:38:00,
2013-04-13 05:55:00,47.0,42.0,-100.00,ENE,75,2.0,3.0,84,0.00,,,0.00,0.000000,,2013-04-13 10:55:00,
2013-04-13 06:02:00,48.0,39.0,-100.00,East,97,2.0,5.0,71,0.00,,,0.00,0.000000,,2013-04-13 11:02:00,
2013-04-13 06:24:00,48.0,39.0,-100.00,East,97,2.0,5.0,71,0.00,,,0.00,0.000000,,2013-04-13 11:24:00,
2013-04-13 06:35:00,48.0,39.0,-100.00,East,97,2.0,5.0,71,0.00,,,0.00,0.000000,,2013-04-13 11:35:00,
2013-04-13 06:45:00,48.0,39.0,-100.00,East,97,2.0,5.0,71,0.00,,,0.00,0.000000,,2013-04-13 11:45:00,
2013-04-13 06:54:00,48.0,39.0,-100.00,East,97,2.0,5.0,71,0.00,,,0.00,0.000000,,2013-04-13 11:54:00,
2013-04-13 07:02:00,48.0,41.0,-100.00,East,92,3.0,5.0,77,0.00,,,0.00,2.000000,,2013-04-13 12:02:00,
2013-04-13 07:37:00,48.0,41.0,-100.00,East,92,3.0,5.0,77,0.00,,,0.00,2.000000,,2013-04-13 12:37:00,
2013-04-13 07:48:00,48.0,41.0,-100.00,East,92,3.0,5.0,77,0.00,,,0.00,2.000000,,2013-04-13 12:48:00,
2013-04-13 07:55:00,48.0,41.0,-100.00,East,92,3.0,5.0,77,0.00,,,0.00,2.000000,,2013-04-13 12:55:00,
2013-04-13 08:02:00,53.0,41.0,-100.00,East,91,5.0,8.0,64,0.00,,,0.00,74.000000,,2013-04-13 13:02:00,
2013-04-13 08:30:00,53.0,41.0,-100.00,East,91,5.0,8.0,64,0.00,,,0.00,74.000000,,2013-04-13 13:30:00,
2013-04-13 08:49:00,53.0,41.0,-100.00,East,91,5.0,8.0,64,0.00,,,0.00,74.000000,,2013-04-13 13:49:00,
2013-04-13 08:55:00,53.0,41.0,-100.00,East,91,5.0,8.0,64,0.00,,,0.00,74.000000,,2013-04-13 13:55:00,
2013-04-13 09:24:00,58.0,39.0,-100.00,East,84,7.0,14.0,50,0.00,,,0.00,311.000000,,2013-04-13 14:24:00,
2013-04-13 09:39:00,58.0,39.0,-100.00,East,84,7.0,14.0,50,0.00,,,0.00,311.000000,,2013-04-13 14:39:00,
2013-04-13 09:48:00,58.0,39.0,-100.00,East,84,7.0,14.0,50,0.00,,,0.00,311.000000,,2013-04-13 14:48:00,
2013-04-13 09:59:00,58.0,39.0,-100.00,East,84,7.0,14.0,50,0.00,,,0.00,311.000000,,2013-04-13 14:59:00,
2013-04-13 10:02:00,62.0,40.0,-100.00,East,95,7.0,16.0,44,0.00,,,0.00,618.000000,,2013-04-13 15:02:00,
2013-04-13 10:37:00,62.0,40.0,-100.00,East,95,7.0,16.0,44,0.00,,,0.00,618.000000,,2013-04-13 15:37:00,
2013-04-13 10:45:00,62.0,40.0,-100.00,East,95,7.0,16.0,44,0.00,,,0.00,618.000000,,2013-04-13 15:45:00,
2013-04-13 11:02:00,67.0,41.0,-100.00,East,87,5.0,10.0,39,0.00,,,0.00,790.000000,,2013-04-13 16:02:00,
2013-04-13 11:36:00,67.0,41.0,-100.00,East,87,5.0,10.0,39,0.00,,,0.00,790.000000,,2013-04-13 16:36:00,
2013-04-13 11:48:00,67.0,41.0,-100.00,East,87,5.0,10.0,39,0.00,,,0.00,790.000000,,2013-04-13 16:48:00,
2013-04-13 11:55:00,67.0,41.0,-100.00,East,87,5.0,10.0,39,0.00,,,0.00,790.000000,,2013-04-13 16:55:00,
2013-04-13 12:02:00,70.0,41.0,-100.00,SE,134,5.0,10.0,35,0.00,,,0.00,951.000000,,2013-04-13 17:02:00,
2013-04-13 12:26:00,70.0,41.0,-100.00,SE,134,5.0,10.0,35,0.00,,,0.00,951.000000,,2013-04-13 17:26:00,
2013-04-13 12:38:00,70.0,41.0,-100.00,SE,134,5.0,10.0,35,0.00,,,0.00,951.000000,,2013-04-13 17:38:00,
2013-04-13 12:45:00,70.0,41.0,-100.00,SE,134,5.0,10.0,35,0.00,,,0.00,951.000000,,2013-04-13 17:45:00,
2013-04-13 13:02:00,74.0,43.0,-100.00,SSE,162,4.0,10.0,33,0.00,,,0.00,982.000000,,2013-04-13 18:02:00,
2013-04-13 13:33:00,74.0,43.0,-100.00,SSE,162,4.0,10.0,33,0.00,,,0.00,982.000000,,2013-04-13 18:33:00,
2013-04-13 13:42:00,74.0,43.0,-100.00,SSE,162,4.0,10.0,33,0.00,,,0.00,982.000000,,2013-04-13 18:42:00,
2013-04-13 13:53:00,74.0,43.0,-100.00,SSE,162,4.0,10.0,33,0.00,,,0.00,982.000000,,2013-04-13 18:53:00,
2013-04-13 14:02:00,76.0,43.0,-100.00,SE,142,6.0,13.0,31,0.00,,,0.00,1071.000000,,2013-04-13 19:02:00,
2013-04-13 14:33:00,76.0,43.0,-100.00,SE,142,6.0,13.0,31,0.00,,,0.00,1071.000000,,2013-04-13 19:33:00,
2013-04-13 14:42:00,76.0,43.0,-100.00,SE,142,6.0,13.0,31,0.00,,,0.00,1071.000000,,2013-04-13 19:42:00,
2013-04-13 14:53:00,76.0,43.0,-100.00,SE,142,6.0,13.0,31,0.00,,,0.00,1071.000000,,2013-04-13 19:53:00,
2013-04-13 15:02:00,78.0,42.0,-100.00,SSE,156,7.0,14.0,28,0.00,,,0.00,1010.000000,,2013-04-13 20:02:00,
2013-04-13 15:32:00,78.0,42.0,-100.00,SSE,156,7.0,14.0,28,0.00,,,0.00,1010.000000,,2013-04-13 20:32:00,
2013-04-13 15:42:00,78.0,42.0,-100.00,SSE,156,7.0,14.0,28,0.00,,,0.00,1010.000000,,2013-04-13 20:42:00,
2013-04-13 15:52:00,78.0,42.0,-100.00,SSE,156,7.0,14.0,28,0.00,,,0.00,1010.000000,,2013-04-13 20:52:00,
2013-04-13 16:02:00,79.0,45.0,-100.00,SE,130,6.0,15.0,30,0.00,,,0.00,905.000000,,2013-04-13 21:02:00,
2013-04-13 16:22:00,79.0,45.0,-100.00,SE,130,6.0,15.0,30,0.00,,,0.00,905.000000,,2013-04-13 21:22:00,
2013-04-13 16:33:00,79.0,45.0,-100.00,SE,130,6.0,15.0,30,0.00,,,0.00,905.000000,,2013-04-13 21:33:00,
2013-04-13 16:43:00,79.0,45.0,-100.00,SE,130,6.0,15.0,30,0.00,,,0.00,905.000000,,2013-04-13 21:43:00,
2013-04-13 16:53:00,79.0,45.0,-100.00,SE,130,6.0,15.0,30,0.00,,,0.00,905.000000,,2013-04-13 21:53:00,
2013-04-13 17:02:00,79.0,45.0,-100.00,SSE,156,6.0,16.0,30,0.00,,,0.00,697.000000,,2013-04-13 22:02:00,
2013-04-13 17:33:00,79.0,45.0,-100.00,SSE,156,6.0,16.0,30,0.00,,,0.00,697.000000,,2013-04-13 22:33:00,
2013-04-13 17:42:00,79.0,45.0,-100.00,SSE,156,6.0,16.0,30,0.00,,,0.00,697.000000,,2013-04-13 22:42:00,
2013-04-13 17:53:00,79.0,45.0,-100.00,SSE,156,6.0,16.0,30,0.00,,,0.00,697.000000,,2013-04-13 22:53:00,
2013-04-13 18:02:00,78.0,46.0,-100.00,SE,136,6.0,11.0,32,0.00,,,0.00,489.000000,,2013-04-13 23:02:00,
2013-04-13 18:33:00,78.0,46.0,-100.00,SE,136,6.0,11.0,32,0.00,,,0.00,489.000000,,2013-04-13 23:33:00,
2013-04-13 18:43:00,78.0,46.0,-100.00,SE,136,6.0,11.0,32,0.00,,,0.00,489.000000,,2013-04-13 23:43:00,
2013-04-13 18:53:00,78.0,46.0,-100.00,SE,136,6.0,11.0,32,0.00,,,0.00,489.000000,,2013-04-13 23:53:00,
2013-04-13 19:02:00,76.0,46.0,-100.00,SE,144,6.0,12.0,34,0.00,,,0.00,278.000000,,2013-04-14 00:02:00,
2013-04-13 19:22:00,76.0,46.0,-100.00,SE,144,6.0,12.0,34,0.00,,,0.00,278.000000,,2013-04-14 00:22:00,
2013-04-13 19:32:00,76.0,46.0,-100.00,SE,144,6.0,12.0,34,0.00,,,0.00,278.000000,,2013-04-14 00:32:00,
2013-04-13 19:42:00,76.0,46.0,-100.00,SE,144,6.0,12.0,34,0.00,,,0.00,278.000000,,2013-04-14 00:42:00,
2013-04-13 19:52:00,76.0,46.0,-100.00,SE,144,6.0,12.0,34,0.00,,,0.00,278.000000,,2013-04-14 00:52:00,
2013-04-13 20:02:00,71.0,45.0,-100.00,SSE,149,4.0,10.0,39,0.00,,,0.00,57.000000,,2013-04-14 01:02:00,
2013-04-13 20:33:00,71.0,45.0,-100.00,SSE,149,4.0,10.0,39,0.00,,,0.00,57.000000,,2013-04-14 01:33:00,
2013-04-13 20:42:00,71.0,45.0,-100.00,SSE,149,4.0,10.0,39,0.00,,,0.00,57.000000,,2013-04-14 01:42:00,
2013-04-13 20:53:00,71.0,45.0,-100.00,SSE,149,4.0,10.0,39,0.00,,,0.00,57.000000,,2013-04-14 01:53:00,
2013-04-13 21:02:00,68.0,41.0,-100.00,SSE,160,4.0,8.0,38,0.00,,,0.00,0.000000,,2013-04-14 02:02:00,
2013-04-13 21:22:00,68.0,41.0,-100.00,SSE,160,4.0,8.0,38,0.00,,,0.00,0.000000,,2013-04-14 02:22:00,
2013-04-13 21:33:00,68.0,41.0,-100.00,SSE,160,4.0,8.0,38,0.00,,,0.00,0.000000,,2013-04-14 02:33:00,
2013-04-13 21:43:00,68.0,41.0,-100.00,SSE,160,4.0,8.0,38,0.00,,,0.00,0.000000,,2013-04-14 02:43:00,
2013-04-13 21:53:00,68.0,41.0,-100.00,SSE,160,4.0,8.0,38,0.00,,,0.00,0.000000,,2013-04-14 02:53:00,
2013-04-13 22:02:00,63.0,44.0,-100.00,ESE,118,2.0,7.0,50,0.00,,,0.00,0.000000,,2013-04-14 03:02:00,
2013-04-13 22:22:00,63.0,44.0,-100.00,ESE,118,2.0,7.0,50,0.00,,,0.00,0.000000,,2013-04-14 03:22:00,
2013-04-13 22:33:00,63.0,44.0,-100.00,ESE,118,2.0,7.0,50,0.00,,,0.00,0.000000,,2013-04-14 03:33:00,
2013-04-13 22:43:00,63.0,44.0,-100.00,ESE,118,2.0,7.0,50,0.00,,,0.00,0.000000,,2013-04-14 03:43:00,
2013-04-13 22:53:00,63.0,44.0,-100.00,ESE,118,2.0,7.0,50,0.00,,,0.00,0.000000,,2013-04-14 03:53:00,
2013-04-13 23:02:00,59.0,46.0,-100.00,East,99,2.0,4.0,63,0.00,,,0.00,0.000000,,2013-04-14 04:02:00,
2013-04-13 23:23:00,59.0,46.0,-100.00,East,99,2.0,4.0,63,0.00,,,0.00,0.000000,,2013-04-14 04:23:00,
2013-04-13 23:33:00,59.0,46.0,-100.00,East,99,2.0,4.0,63,0.00,,,0.00,0.000000,,2013-04-14 04:33:00,
2013-04-13 23:43:00,59.0,46.0,-100.00,East,99,2.0,4.0,63,0.00,,,0.00,0.000000,,2013-04-14 04:43:00,
2013-04-13 23:52:00,59.0,46.0,-100.00,East,99,2.0,4.0,63,0.00,,,0.00,0.000000,,2013-04-14 04:52:00,